Weather in Pustovalovo

Russia / Samara Oblast     53°13′14″N   51°12′09″E
temp.,
°C
wind,
m/s
gust,
m/s
humid.,
%
clouds,
%
prec.,
mm/h
press.,
hPa
HPBL,
m
4 march, thu
thu401:00−9w349496 0.0 100767
04:00−12w449680 0.0 100871
07:00−12sw499767 0.0 1007145
10:00−7sw6119478 0.3 1006414
13:00−4sw81193100 0.1 1004636
16:00−2sw91594100 0.3 1002979
19:000wsw101797100 1.4 10001057
22:000wsw101597100 1.9 1001940
5 march, fri
fri501:000wsw81490100 0.1 1001757
04:00−1sw81491100 0.4 1001709
07:00−1sw61297100 0.3 1001614
10:000sw61098100 1.1 1001582
13:00−1n4697100 1.5 1002315
16:00−2nnw4696100 1.8 1005453
19:00−5nw2392100 0.1 100831
22:00−11nnw229367 0.1 101121
6 march, sat
sat601:00−13wnw12951 0.0 101321
04:00−14wsw129020 0.0 101420
07:00−14ssw238678 0.0 101420
10:00−11sw369470 0.0 1015196
13:00−7w349497 0.0 1015270
16:00−6nw249199 0.1 1014523
19:00−11nw3391100 0.0 101438
22:00−13n3594100 0.0 1014105
7 march, sun
sun701:00−16nnw349294 0.0 101366
04:00−19nnw339560 0.0 101424
07:00−21nw23980 0.0 101421
10:00−17w23930 0.0 101597
13:00−13sw34917 0.0 1015248
16:00−11ssw589042 0.0 1014391
19:00−14ssw499429 0.0 1012171
22:00−12ssw6139463 0.1 1011347
8 march, mon
mon801:00−7ssw81493100 0.2 1007644
04:00−6ssw91594100 0.8 1004916
07:00−5sw91694100 0.9 1003870
10:00−5w51078100 1.9 1005711
13:00−5ssw367517 0.0 1006377
16:00−3s7129658 0.7 1004829
19:00−2ssw91595100 1.8 1000993
22:00−4wsw10188099 2.5 10011224